Regional Weather Roundup
Issued by NWS Goodland, KS

Home | Current Version | Previous Version | Text Only | Print | Product List | Glossary On
Versions: 1 2 3 4 5 6 7 8 9 10 11 12 13 14 15 16 17 18 19 20 21 22 23 24 25 26 27 28 29 30 31 32 33 34 35 36 37 38 39 40 41 42 43 44 45 46 47 48 49 50
000
ASUS43 KGLD 250308
RWRGLD

GOODLAND FORECAST AREA HOURLY WEATHER ROUNDUP
NATIONAL WEATHER SERVICE GOODLAND KS
900 PM MDT TUE MAY 24 2016

...OFFICIAL OBSERVATIONS...

CITY           SKY/WX    TMP DP  RH WIND       PRES   REMARKS
GOODLAND KS    CLEAR     65  56  72 SE20      29.77R
HILL CITY KS   CLOUDY    67  55  65 SE12      29.77S
IMPERIAL NEB   CLOUDY    66  55  67 N22G31    29.84R THUNDER
MCCOOK NEB     CLOUDY    69  62  78 SE9       29.76S
AKRON CO       CLEAR     54  47  77 E6        29.80R
BURLINGTON CO  CLEAR     66  59  78 SE15      29.78R
LIMON CO       CLEAR     58  41  53 S7        29.83R
$$

...UNOFFICIAL OBSERVATIONS...

CITY           SKY/WX    TMP DP  RH WIND       PRES   REMARKS
COLBY KS       CLEAR     63  57  82 E8        29.78S
GOVE KS          N/A     63  32  31 MISG        N/A
LENORA KS        N/A     68  32  26 MISG        N/A
NORTON KS      CLEAR     68  61  77 E6        29.79R
SHARON SPRINGS   N/A     64  58  82 SE6G13      N/A
KIT CARSON CO    N/A     68  60  75 MISG        N/A
YUMA CO          N/A     61  54  76 E9          N/A
$$




USA.gov is the U.S. government's official web portal to all federal, state and local government web resources and services.